Location: �terpigny
(49.8910°N, 2.9249°E)
Time: 15:24:11
(UTC+00:00)

SJ-11-01 - Pass Details

Date: 24 October 2021
Orbit: 685 x 700 km, 97.9° (Epoch: 28 November)

Event Time Altitude Azimuth Distance (km) Brightness Sun altitude
Rises 18:10:01 0° 169° (S) 3,048 7.5 -15.2°
Reaches altitude 10° 18:12:15 10° 171° (S) 2,139 6.7 -15.6°
Maximum altitude 18:16:56 76° 257° (WSW) 721 4.5 -16.3°
Drops below altitude 10° 18:21:41 10° 343° (NNW) 2,165 7.1 -17.1°
Sets 18:23:58 0° 345° (NNW) 3,090 7.9 -17.4°
